Seward, AK

9:16 AM AKDT on June 29, 2017 (GMT -0800)
Seward

Weather History for PAWD - August, 2012

Change the Weather History Date:

Friday, August 31, 2012

  Actual Average Record
Temperature  
Mean Temperature 50 °F -  
Max Temperature 53 °F 59 °F 73 °F (2016)
Min Temperature 48 °F 47 °F 39 °F (1965)
Degree Days  
Heating Degree Days 14    
Moisture  
Dew Point 49 °F    
Average Humidity 95    
Maximum Humidity 100    
Minimum Humidity 89    
Precipitation  
Precipitation 0.06 in - - ()
Sea Level Pressure  
Sea Level Pressure 29.71 in    
Wind  
Wind Speed 1 mph (South)    
Max Wind Speed 6 mph    
Max Gust Speed -    
Visibility 10 miles    
Events Rain    
Averages and records for this station are not official NWS values.
T = Trace of Precipitation, MM = Missing Value Source: NWS Daily Summary

Daily Weather History Graph

Daily Weather History Graph

Search for Another Location

Airport or City:

Trip Planner

Search our weather history database for the weather conditions in past years. The results will help you decide how hot, cold, wet, or windy it might be!

Date:

Astronomy

Aug. 31, 2012 Rise Set
Actual Time 6:51 AM AKDT 9:02 PM AKDT
Civil Twilight 6:06 AM AKDT 9:47 PM AKDT
Nautical Twilight 5:07 AM AKDT 10:45 PM AKDT
Astronomical Twilight 3:49 AM AKDT 12:01 AM AKDT
Moon 8:25 PM AKDT (8/31) 7:26 AM AKDT (8/31)
Length of Visible Light 15h 41m
Length of Day
14h 10m
Full, 100% of the Moon is Illuminated
Aug 31
Full
Sep 8
Last Quarter
Sep 15
New
Sep 22
First Quarter
Sep 29
Full

Hourly Weather History & Observations

Time (AKDT) Temp. Dew Point Humidity Pressure Visibility Wind Dir Wind Speed Gust Speed Precip Events Conditions
12:53 AM 48.9 °F 48.9 °F 100% 29.81 in 10.0 mi North - - 0.00 in   Overcast
1:53 AM 48.0 °F 46.9 °F 96% 29.81 in 10.0 mi North - - 0.00 in   Overcast
2:53 AM 48.9 °F 48.0 °F 97% 29.81 in 10.0 mi Calm Calm - N/A   Overcast
3:53 AM 48.0 °F 46.9 °F 96% 29.80 in 10.0 mi Calm Calm - N/A   Overcast
4:53 AM 48.0 °F 46.9 °F 96% 29.79 in 10.0 mi Calm Calm - N/A   Overcast
5:10 AM 48.2 °F 46.4 °F 93% 29.78 in 10.0 mi Calm Calm - N/A   Overcast
5:53 AM 48.0 °F 46.9 °F 96% 29.78 in 10.0 mi Calm Calm - N/A   Overcast
6:53 AM 48.0 °F 46.9 °F 96% 29.78 in 10.0 mi Calm Calm - N/A   Overcast
7:53 AM 48.0 °F 46.9 °F 96% 29.77 in 10.0 mi NE 3.5 mph - N/A   Overcast
8:53 AM 48.9 °F 48.0 °F 97% 29.77 in 10.0 mi Calm Calm - N/A   Overcast
9:53 AM 51.1 °F 48.9 °F 92% 29.75 in 10.0 mi Calm Calm - N/A   Overcast
10:53 AM 50.0 °F 48.0 °F 93% 29.75 in 10.0 mi Calm Calm - N/A   Overcast
11:53 AM 50.0 °F 48.0 °F 93% 29.74 in 10.0 mi SSW 3.5 mph - 0.00 in   Overcast
12:53 PM 52.0 °F 48.9 °F 89% 29.74 in 10.0 mi Calm Calm - 0.00 in   Overcast
1:53 PM 51.1 °F 50.0 °F 96% 29.72 in 10.0 mi Calm Calm - 0.01 in   Overcast
2:53 PM 52.0 °F 50.0 °F 93% 29.71 in 10.0 mi Calm Calm - 0.01 in   Overcast
3:53 PM 52.0 °F 51.1 °F 97% 29.70 in 10.0 mi Calm Calm - N/A   Overcast
4:53 PM 52.0 °F 50.0 °F 93% 29.68 in 10.0 mi SSW 5.8 mph - N/A   Overcast
5:53 PM 53.1 °F 50.0 °F 89% 29.67 in 10.0 mi Calm Calm - N/A   Overcast
6:53 PM 52.0 °F 51.1 °F 97% 29.65 in 10.0 mi SSW 3.5 mph - 0.00 in Rain Light Rain
7:53 PM 52.0 °F 50.0 °F 93% 29.63 in 10.0 mi East 3.5 mph - 0.00 in   Overcast
8:11 PM 51.8 °F 51.8 °F 100% 29.63 in 10.0 mi Calm Calm - N/A   Overcast
8:53 PM 52.0 °F 50.0 °F 93% 29.62 in 10.0 mi Calm Calm - N/A   Overcast
9:09 PM 51.8 °F 50.0 °F 94% 29.61 in 10.0 mi Calm Calm - N/A   Overcast
9:53 PM 51.1 °F 50.0 °F 96% 29.60 in 10.0 mi SSW 3.5 mph - 0.00 in Rain Light Rain
10:10 PM 51.8 °F 50.0 °F 94% 29.60 in 10.0 mi North - - 0.00 in Rain Light Rain
10:53 PM 50.0 °F 48.9 °F 96% 29.60 in 10.0 mi Calm Calm - 0.00 in   Overcast
10:55 PM 51.8 °F 50.0 °F 94% 29.60 in 10.0 mi Calm Calm - 0.00 in Rain Light Rain
11:53 PM 50.0 °F 48.9 °F 96% 29.59 in 8.0 mi North - - 0.04 in Rain Light Rain